Showing default

TELKOM 1, 25880

Orbit data source: Space-Track

TELKOM 1, 25880 is a payload satellite owned by Telkom (ID) in GEO that was launched on Thu, 12 Aug 1999 UTC via an ARIANE 42P launch vehicle from the French Guiana (FRGUI). Payload-class satellites include a variety of spacecraft equipped with specific instruments for various scientific and technological missions. These include communications satellites like Starlink; space stations such as the ISS; scientific satellites like the Hubble; Earth observation satellites from companies like Planet Labs, Umbra, and HawkEye 360; GPS; miniature CubeSats for education and research; and military/defense satellites.

Not visible in the next 10 days
Identifier
25880, 1999-042A
Orbit
GEO
Country
Flag of UnknownUnknown / INDO
Related business
Manufacturer
LMCSS
Mission
Non-operational Commercial Communications
Bus & Motor
A2100, LEROS 1C
Mass
2,763 kg wet, ~1,500 kg dry
Launch date (UTC)
1999-08-12 (26 years ago)
Launch vehicle
ARIANE 42P
Launch site
French Guiana (FRGUI)
Object type
Payload
Rocket body
Debris
Shape & HBR
Box + 1 Pan, 11.3 m
Radar Cross Section
38.975 m², Large (>1 m²)

Expand to show TLE details & history
Last TLE update: 15 hours ago

TLE from 15 hours ago
0 TELKOM 1
1 25880U 99042A   25307.83981725 -.00000198  00000-0  00000+0 0  9995
2 25880   7.1202  68.8904 0015705 242.1190 122.5555  1.00276630 96138
Epoch: 2025-11-03T20:09Z
TLE epoch observation values (Epoch: 2025-11-03T20:09:20.210Z)
Latitude
0.60131°
Longitude
87.97192°
Altitude
35,820.091 km
Speed
3.072 km/s
True Right ascension
04h 54m 33s
True Declination
0° 36' 03"
Sunlit
Object was in daylight at epoch
Visualization orbit readout
Latitude
Unknown
Longitude
Unknown
Altitude
Unknown
Speed
Unknown
Apparent Right ascension
Unknown
Apparent Declination
Unknown
Sunlit
N/A
Visualization observer readout
Local Sidereal Time
07:04:19
Azimuth
Unknown
Elevation
Unknown
Doppler factor
Unknown
Orbital elements
Apogee altitude
35,852.502 km
Perigee altitude
35,720.064 km
Semi-major axis
42,164.42 km
Eccentricity
0.00157
Inclination
7.1202°
RAAN
68.8904°
Arg. of periapsis
242.119°
True anomaly
122.70703°
Mean anomaly
122.5555°
Eccentric anomaly
122.63128°
Mean motion
0.25068 °/min
Orbital period
1,436.08 mins
BSTAR
0
Loading maneuver chart data...
Computing Atmospheric mass density...
Loading historical data...
Loading historical data...
Loading historical data...
Loading historical data...
Loading historical data...
Loading historical data...
Loading historical data...
Other satellites on launch #42 in the year 1999 (1999-08-12 UTC)

Documentation

Showing up to 5 results
|